Location: Flensburg
(54.6357°N, 9.5142°E)
Time: 00:33:27
(UTC+02:00)

ISS - Visible Passes

Search period start: 25 July 2017 00:00
Search period end: 04 August 2017 00:00
Orbit: 400 x 408 km, 51.6° (Epoch: 25 July)

Date Brightness Start Highest point End Pass type
(mag) Time Alt. Az. Time Alt. Az. Time Alt. Az.
25 Jul -3.5 00:07:51 10° WSW 00:10:58 41° SSE 00:14:04 10° E visible
25 Jul -3.7 01:44:01 10° W 01:47:10 46° S 01:50:19 10° ESE visible
25 Jul -2.7 03:20:35 10° W 03:23:13 22° SSW 03:25:49 10° SSE visible
25 Jul -3.2 23:15:45 10° SW 23:18:44 34° SSE 23:21:44 10° E visible
26 Jul -3.7 00:51:45 10° WSW 00:54:54 50° S 00:56:43 22° ESE visible
26 Jul -2.0 02:28:08 10° W 02:29:15 18° WSW 02:29:15 18° WSW visible
26 Jul -2.8 22:23:46 10° SW 22:26:32 26° SSE 22:29:20 10° E visible
26 Jul -3.7 23:59:28 10° WSW 00:02:38 49° S 00:05:18 14° ESE visible
27 Jul -2.8 01:35:46 10° W 01:37:54 30° SW 01:37:54 30° SW visible
27 Jul -3.5 23:07:14 10° WSW 23:10:21 44° S 23:13:29 10° E visible
28 Jul -3.6 00:43:26 10° W 00:46:34 44° S 00:46:54 42° S visible
28 Jul -3.2 22:15:03 10° SW 22:18:05 37° SSE 22:21:08 10° E visible
28 Jul -3.7 23:51:06 10° W 23:54:16 49° S 23:56:01 23° ESE visible
29 Jul -1.8 01:27:33 10° W 01:28:38 17° WSW 01:28:38 17° WSW visible
29 Jul -3.6 22:58:48 10° WSW 23:01:58 49° S 23:05:08 10° ESE visible
30 Jul -3.1 00:35:07 10° W 00:37:49 34° SSW 00:37:49 34° SSW visible
30 Jul -3.4 23:42:44 10° W 23:45:51 42° SSW 23:47:01 29° SE visible
31 Jul -1.2 01:19:29 10° WSW 01:19:38 11° WSW 01:19:38 11° WSW visible
31 Jul -3.5 22:50:22 10° W 22:53:31 48° S 22:56:14 13° ESE visible
01 Aug -2.3 00:26:51 10° W 00:28:51 22° SW 00:28:51 22° SW visible
01 Aug -3.0 23:34:22 10° W 23:37:20 32° SSW 23:38:06 28° S visible
02 Aug -3.2 22:41:55 10° W 22:45:00 40° SSW 22:47:21 15° SE visible
03 Aug -1.6 00:18:49 10° WSW 00:19:58 14° SW 00:19:58 14° SW visible
03 Aug -2.4 23:26:04 10° W 23:28:41 22° SSW 23:29:15 21° S visible
